Regional Weather Roundup
Issued by NWS

Home | Current Version | Previous Version | Graphics & Text | Print | Product List | Glossary On
Versions: 1 2 3 4 5 6 7 8 9 10 11 12 13 14 15 16 17 18 19 20 21 22 23 24 25 26 27
000
ASUS45 KTFX 231910
RWRMT
MONTANA REGIONAL WEATHER ROUNDUP
NATIONAL WEATHER SERVICE GREAT FALLS MT
100 PM MDT SUN JUL 23 2017

NOTE: "FAIR" INDICATES FEW OR NO CLOUDS BELOW 12000 FEET WITH NO
SIGNIFICANT WEATHER AND/OR OBSTRUCTIONS TO VISIBILITY.

MTZ001>007-043-232000-
WEST OF THE DIVIDE

CITY           SKY/WX    TMP DP  RH WIND       PRES   REMARKS
KALISPELL      SUNNY     85  49  28 S10       29.96F
MISSOULA       SUNNY     84  45  25 SW3       29.99F
BUTTE          SUNNY     84  38  19 VRB3      30.12F
MULLAN PASS    SUNNY     72  45  37 VRB3      30.18F
ANACONDA         N/A     82  43  24 NE6       30.07F
DEER LODGE       N/A     82  43  24 CALM      30.08F
EUREKA           N/A     88  50  27 MISG      29.91F
HAMILTON         N/A     79  46  31 N3        30.02F
LIBBY            N/A     88  48  25 NW5       29.92F
$$

MTZ008-052>055-232000-
SOUTHWEST MONTANA

CITY           SKY/WX    TMP DP  RH WIND       PRES   REMARKS
BOZEMAN        MOSUNNY   83  45  26 CALM      30.06F
DILLON         SUNNY     80  40  23 CALM      30.11F
W YELLOWSTONE  CLOUDY    75  36  23 SW12G18   30.27F
ENNIS          SUNNY     86  32  14 S9        30.15F
THREE FORKS      N/A     85  41  21 NE2       30.04F
$$

MTZ009-010-012-014-046-048-049-054-232000-
EAST SLOPES AND CENTRAL MONTANA

CITY           SKY/WX    TMP DP  RH WIND       PRES   REMARKS
CUT BANK       SUNNY     88  41  19 SW9       29.95F
GREAT FALLS    SUNNY     90  39  16 W9        29.97F
MALMSTROM AFB  SUNNY     88  40  18 S8G17     29.96F
HELENA         SUNNY     90  44  20 E5        30.00F
CHOTEAU          N/A     90  41  18 SE12      29.99F
$$

MTZ011-013-016-021-045-047-050-051-232000-
NORTH CENTRAL MONTANA

CITY           SKY/WX    TMP DP  RH WIND       PRES   REMARKS
HAVRE          SUNNY     91  44  19 VRB5      29.91F
LEWISTOWN      SUNNY     88  39  17 VRB3      30.02F
N BAR RANCH      N/A     90  32  12 S14G25    30.05F
CHINOOK          N/A     91  46  21 W7        29.90F
$$

MTZ017>020-022>027-061-062-232000-
NORTHEAST MONTANA

CITY           SKY/WX    TMP DP  RH WIND       PRES   REMARKS
GLASGOW        SUNNY     92  43  18 VRB6      29.92F
JORDAN           N/A     94  38  14 SE13G20   29.94F
SIDNEY         SUNNY     87  53  31 CALM      29.98F
WOLF POINT     SUNNY     94  43  17 SW8       29.93F HX  90
MALTA          SUNNY     93  41  16 W7        29.89F
PLENTYWOOD       N/A     86  46  25 SW6       29.97F
POPLAR           N/A     90  46  22 SW7       29.95F
$$

MTZ028>42-056>058-232000-
SOUTHCENTRAL AND SOUTHEAST MONTANA

CITY           SKY/WX    TMP DP  RH WIND       PRES   REMARKS
BAKER          SUNNY     90  40  17 S7        30.04F
BILLINGS       MOSUNNY   89  31  12 S6        30.01F
LIVINGSTON     SUNNY     87  36  16 VRB3      30.05F
MILES CITY     SUNNY     93  38  14 SE8       29.97F
BIG TIMBER     SUNNY     88  37  16 VRB5      30.07F
FORSYTH          N/A     93  37  14 SE5       29.96F
LAUREL           N/A     88  41  19 E2        30.00F
$$

REGIONAL REPORTS...DAKOTAS

CITY           SKY/WX    TMP DP  RH WIND       PRES   REMARKS
WILLISTON      SUNNY     87  51  28 VRB7      29.99F
MINOT          SUNNY     82  52  35 E9        30.01F
DICKINSON      SUNNY     84  49  29 S6        30.03F
BEACH            N/A     86  43  22 S7        30.06F
CROSBY           N/A     82  50  32 SE6       29.99F
WATFORD CITY     N/A     86  50  28 SE3       29.99F
BISMARCK       SUNNY     81  54  39 W6        30.04F
GRAND FORKS    PTSUNNY   74  62  66 VRB3      30.01F
FARGO          CLOUDY    71  60  68 NW8       30.02S
BUFFALO SD       N/A     88  48  25 S10       29.99F
RAPID CITY     SUNNY     87  45  23 SE8G20    30.08F
$$

REGIONAL REPORTS...WYOMING/IDAHO/WASHINGTON

CITY           SKY/WX    TMP DP  RH WIND       PRES   REMARKS
GILLETTE       SUNNY     90  39  16 VRB5      30.09F
SHERIDAN       SUNNY     89  38  16 E5        30.06F
BUFFALO WY     SUNNY     88  36  15 S6        30.13F
CODY           SUNNY     86  34  15 E9        30.12F
YELLOWSTONE LA   N/A     66  46  48 CALM      30.38S
IDAHO FALLS    SUNNY     83  47  28 NW6       30.13F
BOISE          SUNNY     89  45  21 NW7       29.99F
SPOKANE        MOSUNNY   86  48  26 SW15      29.96F
$$

REGIONAL REPORTS...ALBERTA

CITY           SKY/WX    TMP DP  RH WIND       PRES   REMARKS
EDMONTON       CLOUDY    68  55  64 NE7       29.90F
CALGARY        MOSUNNY   82  48  30 S5        29.87F
LETHBRIDGE     MOSUNNY   90  48  24 SW16      29.88F
MEDICINE HAT   MOSUNNY   90  50  25 S10G17    29.85F
WATERTON GATE    N/A     82  46  28 SW16G25     N/A
CARDSTON         N/A     86  48  26 W6          N/A
MILK RIVER       N/A     88  46  23 SW9         N/A
ONEFOUR          N/A     90  45  20 SW9G20      N/A
$$

REGIONAL REPORTS...SASKATCHEWAN

CITY           SKY/WX    TMP DP  RH WIND       PRES   REMARKS
SWIFT CURRENT  SUNNY     88  52  29 SW15      29.89F
REGINA         MOSUNNY   88  50  27 S13G21    29.92F
SASKATOON      PTSUNNY   79  59  50 S5        29.87F
CYPRESS HILLS    N/A     82  41  23 SW8         N/A
VAL MARIE        N/A     91  39  16 S13         N/A
ROCKGLEN         N/A     88  43  20 S12G18      N/A
$$




USA.gov is the U.S. government's official web portal to all federal, state and local government web resources and services.